Weather in Vladimirskiy Lager

Russia / Pskov Oblast     58°13′40″N   29°03′18″E
temp.,
°C
wind,
m/s
gust,
m/s
humid.,
%
clouds,
%
prec.,
mm/h
press.,
hPa
HPBL,
m
7 may, fri
fri700:00+4sw51195100 0.2 9991010
03:00+3ssw61295100 0.3 1000955
06:00+3sw51197100 0.3 1000892
09:00+4ssw51094100 0.3 1002797
12:00+6sw698293 0.2 10031013
15:00+8sw586985 0.5 10041239
18:00+8sw4672100 0.6 10041098
21:00+5sw1190100 0.9 100410
8 may, sat
sat800:00+4se1190100 0.0 100410
03:00+4s2292100 0.0 100336
06:00+3wsw269788 0.1 1004225
09:00+3w489597 0.3 1005610
12:00+6wnw457289 0.2 10061160
15:00+7wnw356095 0.3 10081458
18:00+7nw576821 0.4 10091235
21:00+2nw22841 0.4 101230
9 may, sun
sun900:00+1wnw24830 0.0 101365
03:000w310850 0.0 1015204
06:00+1w310890 0.0 1017259
09:00+7w35560 0.0 1018694
12:00+11wsw454071 0.0 10191601
15:00+12sw463828 0.0 10192022
18:00+12sw374394 0.0 10192203
21:00+8s31067100 0.0 1020299
10 may, mon
mon1000:00+8ssw41168100 0.0 1020528
03:00+8s5156698 0.1 1020790
06:00+8ssw51373100 0.0 1021523
09:00+12sw5116672 0.0 1022524
12:00+17sw585220 0.0 10231025
15:00+19ssw684857 0.0 10231441
18:00+19ssw485679 0.0 10231259
21:00+14s3117672 0.0 1025360
11 may, tue
tue1100:00+10s3128969 0.0 1026309
03:00+9s41286100 0.0 1026295
06:00+9s41382100 0.0 1026370
09:00+14s510615 0.0 1026546
12:00+19s57465 0.0 10261111
15:00+20s58415 0.0 10251338
18:00+20s47505 0.0 10241235
21:00+13sse310795 0.0 1024222